Location: Yellowknife
(62.4500°N, 114.3500°W)
Time: 01:45:23
(UTC-07:00)

Envisat - Pass Details

Date: 01 October 2023
Orbit: 762 x 764 km, 98.3° (Epoch: 07 December)

Event Time Altitude Azimuth Distance (km) Brightness Sun altitude
Rises 06:17:14 0° 18° (NNE) 3,248 6.7 -10.9°
Reaches altitude 10° 06:19:33 10° 16° (NNE) 2,318 5.9 -10.6°
Maximum altitude 06:24:38 69° 295° (WNW) 826 3.0 -10.0°
Drops below altitude 10° 06:29:40 10° 213° (SSW) 2,304 5.1 -9.5°
Sets 06:31:58 0° 211° (SSW) 3,227 5.8 -9.2°
